[[{"header":{"parameterUnit":"m.s-1","parameterCategory":1,"la1":30.2991,"la2":30.254,"lo1":-89.0895,"lo2":-89.0444,"dy":0.0017,"dx":0.0017,"nx":28,"ny":28,"refTime":"2024-06-15T09:00:00:Z","depth":0,"parameterNumber":2,"parameterNumberName":"U-component_of_WINDS"},"data":[0,0,0,0,0,0,0,0,0,0,0,0,0,0,0,0,0,0,0,0,0,0,0,0,0,0,0,0,0,0,0,0,0,0,0,0,0,0,0,0,0,0,0,0,0,0,0,0,0,0,0,0,0,0,0,0,0,0,0.7075,0.7075,0,0.7107,0.7108,0.7108,0.7098,0.7098,0.7097,0.7096,0.7129,0.713,0.7131,0,0,0,0,0,0,0,0,0,0,0,0,0,0.7002,0.7003,0.7074,0.7075,0.7075,0.7107,0.7108,0.7108,0.7099,0.7098,0.7097,0.7096,0.7128,0.713,0.7132,0,0,0,0,0,0,0,0,0,0,0,0,0,0.7034,0.7004,0.7074,0.7074,0.7075,0.7107,0.7108,0.7108,0.7099,0.7098,0.7097,0.7096,0.7128,0.713,0.7132,0.7166,0,0,0.7139,0.714,0,0,0,0,0,0,0,0,0.7032,0.7036,0.7074,0.7075,0.7075,0.7098,0.7094,0.7127,0.7099,0.709,0.7096,0.7095,0.7119,0.7122,0.713,0.7167,0.7169,0.7139,0.714,0.7141,0.7142,0,0,0,0,0,0,0,0.703,0.7035,0.7087,0.7075,0.7075,0.7072,0.7076,0.71,0.7109,0.709,0.709,0.7094,0.7119,0.7128,0.7131,0.7169,0.7139,0.7141,0.7142,0.7143,0.7234,0.7235,0,0,0,0,0,0,0.7027,0.7033,0.7086,0.7088,0.7051,0.7074,0.7078,0.7091,0.7109,0.7111,0.7095,0.7093,0.7125,0.7128,0.7132,0.7171,0.7141,0.7143,0.7144,0.7233,0.7234,0.7235,0,0,0,0,0,0,0.7026,0.7032,0.7085,0.7061,0.7067,0.7077,0.7092,0.7093,0.7102,0.7112,0.7114,0.7102,0.7124,0.7129,0.7157,0.7172,0.7144,0.7146,0.7231,0.7233,0.7234,0.7252,0,0,0,0,0,0,0.7024,0.7032,0.7045,0.7061,0.7068,0.711,0.7093,0.7094,0.7106,0.7104,0.712,0.7122,0.7124,0.7154,0.7159,0.7175,0.7148,0.723,0.7232,0.7234,0.725,0.7254,0.7257,0,0,0,0,0,0.7021,0.7049,0.7046,0.7053,0.7086,0.7111,0.7115,0.7118,0.7107,0.712,0.7127,0.7121,0.717,0.7157,0.7163,0.718,0.7229,0.7231,0.7234,0.7248,0.7253,0.7257,0,0,0,0,0,0,0.7035,0.7051,0.7048,0.7082,0.7095,0.711,0.7126,0.7123,0.7139,0.7137,0.7139,0.7142,0.7171,0.7178,0.7163,0.7212,0.7198,0.7202,0.7207,0.7211,0.7215,0.7212,0.715,0,0,0,0,0,0.7042,0.7062,0.7075,0.7103,0.711,0.7117,0.7128,0.7129,0.7142,0.7148,0.7157,0.717,0.7188,0.72,0.7218,0.7251,0.7253,0.7265,0.7269,0.7272,0.7275,0.7291,0.7296,0.7243,0.7243,0.7243,0,0,0.7056,0.7067,0.708,0.7106,0.7116,0.7136,0.7122,0.7144,0.7158,0.7151,0.7178,0.7185,0.72,0.723,0.7244,0.7237,0.729,0.7275,0.7277,0.7278,0.7294,0.7299,0.7303,0.7245,0.7244,0.7244,0,0,0.7092,0.7103,0.7127,0.7138,0.7154,0.7158,0.7164,0.7179,0.7183,0.7211,0.7205,0.7222,0.7254,0.7264,0.7274,0.7312,0.7307,0.7318,0.7337,0.7353,0.7357,0.736,0.7373,0.7378,0.7321,0.7321,0.7321,0,0.7108,0.7138,0.714,0.7162,0.7173,0.7168,0.7192,0.7202,0.7223,0.723,0.7222,0.7261,0.727,0.7302,0.7312,0.732,0.7326,0.7316,0.7356,0.736,0.7363,0.7375,0.738,0.7322,0.7322,0.7322,0.7322,0,0.7155,0.7176,0.7194,0.7214,0.7227,0.725,0.7255,0.7267,0.7267,0.7272,0.7298,0.731,0.7329,0.7337,0.7336,0.7368,0.7363,0.7356,0.7341,0.7369,0.738,0.7385,0.7324,0.7323,0.7323,0.7323,0,0,0.7201,0.7221,0.7228,0.7236,0.7253,0.7269,0.7291,0.731,0.732,0.7334,0.7352,0.7378,0.7371,0.7382,0.7382,0.7397,0.7425,0.7387,0.7388,0.7393,0.7459,0.7464,0.7469,0.7422,0.7423,0.7423,0.7457,0,0.7237,0.7276,0.7279,0.7314,0.7332,0.7327,0.7346,0.7358,0.7363,0.7379,0.7384,0.7402,0.7392,0.7399,0.7413,0.7418,0.7438,0.7416,0.7437,0.7438,0.7432,0.7475,0.748,0.7512,0.7462,0.7463,0.7463,0,0.7285,0.7301,0.7338,0.7351,0.7358,0.7376,0.7392,0.7408,0.7421,0.7423,0.7435,0.7433,0.7454,0.7439,0.7468,0.7453,0.7462,0.7466,0.7467,0.7468,0.7451,0.7476,0.7522,0.7526,0.747,0.747,0.7469,0,0.7313,0.7343,0.7369,0.7376,0.7393,0.7404,0.7412,0.7424,0.7434,0.7449,0.7455,0.7472,0.7481,0.7494,0.7496,0.7485,0.7524,0.751,0.7526,0.7526,0.7534,0.7533,0.758,0.7541,0.7541,0.7541,0.7541,0,0.7353,0.7375,0.7381,0.7397,0.7421,0.7423,0.7447,0.7454,0.7464,0.748,0.7477,0.7492,0.7495,0.751,0.7512,0.7535,0.7539,0.7541,0.7541,0.7541,0.754,0.7545,0.7543,0.7542,0.7542,0.7542,0.7541,0,0.7388,0.7393,0.742,0.7433,0.7437,0.7454,0.7465,0.7479,0.7484,0.7504,0.7509,0.7515,0.7533,0.7537,0.7558,0.7559,0.7586,0.7584,0.7581,0.7581,0.7596,0.7594,0.7648,0.7654,0.7612,0.7612,0.7613,0,0.7412,0.7429,0.7444,0.7454,0.7462,0.7479,0.749,0.7493,0.7504,0.7519,0.7531,0.7549,0.7563,0.7591,0.7597,0.7613,0.7611,0.7629,0.7613,0.7612,0.761,0.7608,0.7609,0.7631,0.7632,0.7632,0.7633,0,0.7455,0.7456,0.7472,0.7489,0.7501,0.7514,0.7527,0.7536,0.7539,0.7552,0.757,0.7581,0.7602,0.7619,0.7634,0.7641,0.7637,0.7637,0.7642,0.7641,0.7638,0.7638,0.7588,0.7636,0.7636,0.7635,0.7635,0.7635,0.7484,0.7499,0.7511,0.7528,0.7538,0.7549,0.7563,0.7569,0.7584,0.7602,0.7602,0.7621,0.7633,0.7653,0.7661,0.7675,0.7669,0.7676,0.7677,0.7679,0.7679,0.7637,0.7678,0.7678,0.7678,0.7678,0.7678,0,0.7526,0.7533,0.7549,0.7566,0.758,0.7575,0.7588,0.76,0.7617,0.7628,0.7641,0.7661,0.7677,0.7685,0.77,0.7711,0.7709,0.7714,0.7713,0.7714,0.7684,0.7678,0.7715,0.7715,0.7715,0.7715,0.7715,0.7715,0.7549,0.7572,0.7575,0.7603,0.761,0.7629,0.7637,0.7647,0.7655,0.7678,0.7691,0.7696,0.7705,0.7721,0.7735,0.7737,0.7742,0.7748,0.7749,0.7721,0.7717,0.7713,0.7707,0.775,0.775,0.7778,0.7778,0.7778]},{"header":{"parameterUnit":"m.s-1","parameterCategory":1,"la1":30.2991,"la2":30.254,"lo1":-89.0895,"lo2":-89.0444,"dy":0.0017,"dx":0.0017,"nx":28,"ny":28,"refTime":"2024-06-15T09:00:00:Z","depth":0,"parameterNumber":3,"parameterNumberName":"V-component_of_WINDS"},"data":[0,0,0,0,0,0,0,0,0,0,0,0,0,0,0,0,0,0,0,0,0,0,0,0,0,0,0,0,0,0,0,0,0,0,0,0,0,0,0,0,0,0,0,0,0,0,0,0,0,0,0,0,0,0,0,0,0,0,-1.0479,-1.048,0,-1.0523,-1.0524,-1.0524,-1.0563,-1.0563,-1.0564,-1.0564,-1.0609,-1.061,-1.061,0,0,0,0,0,0,0,0,0,0,0,0,0,-1.0428,-1.0429,-1.0479,-1.048,-1.048,-1.0523,-1.0524,-1.0525,-1.0563,-1.0563,-1.0564,-1.0564,-1.0609,-1.061,-1.061,0,0,0,0,0,0,0,0,0,0,0,0,0,-1.0459,-1.0429,-1.0479,-1.0505,-1.0507,-1.0523,-1.0524,-1.0525,-1.0563,-1.0563,-1.0564,-1.0564,-1.0608,-1.0609,-1.0611,-1.0605,0,0,-1.0614,-1.0615,0,0,0,0,0,0,0,0,-1.0457,-1.0461,-1.05,-1.0503,-1.0506,-1.0538,-1.0523,-1.0552,-1.0562,-1.0542,-1.0564,-1.0565,-1.0585,-1.0588,-1.0595,-1.0607,-1.0609,-1.0614,-1.0615,-1.0616,-1.0616,0,0,0,0,0,0,0,-1.0455,-1.0459,-1.0497,-1.0501,-1.0504,-1.0514,-1.0519,-1.0528,-1.0559,-1.0543,-1.0546,-1.0551,-1.0586,-1.0594,-1.0596,-1.061,-1.0614,-1.0615,-1.0616,-1.0617,-1.0621,-1.062,0,0,0,0,0,0,-1.0449,-1.0457,-1.0495,-1.0498,-1.0483,-1.0514,-1.052,-1.0527,-1.0559,-1.0564,-1.055,-1.0553,-1.0591,-1.0595,-1.0598,-1.0594,-1.0616,-1.0617,-1.0617,-1.0621,-1.062,-1.062,0,0,0,0,0,0,-1.0448,-1.0452,-1.0494,-1.0479,-1.0485,-1.0515,-1.0522,-1.0528,-1.0535,-1.0564,-1.057,-1.0552,-1.0592,-1.0596,-1.0603,-1.0596,-1.0617,-1.0618,-1.0622,-1.0621,-1.062,-1.0585,0,0,0,0,0,0,-1.0446,-1.0452,-1.0449,-1.0478,-1.0485,-1.0498,-1.0522,-1.0528,-1.0537,-1.054,-1.0567,-1.0572,-1.0593,-1.0601,-1.0604,-1.0598,-1.0619,-1.0623,-1.0621,-1.062,-1.0587,-1.0583,-1.058,0,0,0,0,0,-1.0444,-1.0437,-1.0449,-1.0453,-1.0483,-1.0497,-1.0501,-1.0525,-1.0536,-1.0534,-1.0554,-1.0571,-1.0596,-1.0602,-1.0605,-1.0599,-1.0623,-1.0622,-1.0621,-1.0589,-1.0584,-1.058,0,0,0,0,0,0,-1.0406,-1.0442,-1.0455,-1.0457,-1.0474,-1.0504,-1.0502,-1.0519,-1.0533,-1.0535,-1.0564,-1.057,-1.0574,-1.0587,-1.0593,-1.0596,-1.0612,-1.0612,-1.0587,-1.0583,-1.0579,-1.0575,-1.062,0,0,0,0,0,-1.0398,-1.0407,-1.0437,-1.0436,-1.0444,-1.0472,-1.0479,-1.0496,-1.0514,-1.0521,-1.0541,-1.0558,-1.057,-1.0577,-1.059,-1.059,-1.0597,-1.0588,-1.0584,-1.0581,-1.058,-1.0582,-1.0578,-1.0615,-1.0615,-1.0615,0,0,-1.0382,-1.0402,-1.0405,-1.0429,-1.0444,-1.0453,-1.0477,-1.0485,-1.0491,-1.0522,-1.053,-1.0545,-1.0567,-1.057,-1.0573,-1.0582,-1.0571,-1.0579,-1.0576,-1.0577,-1.058,-1.0576,-1.0573,-1.0614,-1.0615,-1.0615,0,0,-1.0356,-1.0372,-1.0373,-1.0388,-1.0411,-1.0429,-1.0429,-1.0457,-1.0468,-1.0477,-1.0501,-1.0509,-1.0529,-1.0543,-1.0553,-1.0534,-1.0552,-1.0538,-1.0518,-1.052,-1.0517,-1.0515,-1.0508,-1.0506,-1.0537,-1.0537,-1.0536,0,-1.0332,-1.0345,-1.0371,-1.0378,-1.0388,-1.0417,-1.0419,-1.0432,-1.0458,-1.0464,-1.0474,-1.05,-1.0516,-1.0524,-1.052,-1.0527,-1.0528,-1.0534,-1.0515,-1.0513,-1.0511,-1.0506,-1.0503,-1.0535,-1.0535,-1.0535,-1.0535,0,-1.0315,-1.0324,-1.0323,-1.0347,-1.0357,-1.0361,-1.0388,-1.0395,-1.0412,-1.0429,-1.0438,-1.0459,-1.0477,-1.048,-1.0496,-1.0491,-1.0496,-1.051,-1.0527,-1.0506,-1.0501,-1.0499,-1.0532,-1.0533,-1.0533,-1.0534,0,0,-1.0265,-1.0305,-1.0304,-1.0316,-1.0344,-1.0351,-1.0357,-1.0375,-1.0381,-1.0398,-1.0404,-1.042,-1.0434,-1.0445,-1.0464,-1.0465,-1.0449,-1.0479,-1.048,-1.0473,-1.0445,-1.0434,-1.0431,-1.0461,-1.0461,-1.0461,-1.0444,0,-1.0243,-1.0255,-1.028,-1.0284,-1.0293,-1.0322,-1.0327,-1.0345,-1.0362,-1.0373,-1.0392,-1.0403,-1.0421,-1.0428,-1.0431,-1.045,-1.0444,-1.0452,-1.0467,-1.0467,-1.0461,-1.0429,-1.0417,-1.0399,-1.0442,-1.0442,-1.0441,0,-1.0219,-1.0235,-1.024,-1.0269,-1.0274,-1.0278,-1.0297,-1.0306,-1.0328,-1.034,-1.0353,-1.0374,-1.0382,-1.0398,-1.041,-1.0415,-1.0423,-1.0434,-1.0434,-1.0436,-1.0453,-1.043,-1.0394,-1.0392,-1.0439,-1.0439,-1.0439,0,-1.0182,-1.0205,-1.0212,-1.0221,-1.0254,-1.0257,-1.0271,-1.0293,-1.0302,-1.0319,-1.0325,-1.0343,-1.0352,-1.0365,-1.039,-1.0399,-1.04,-1.0417,-1.041,-1.041,-1.0409,-1.0408,-1.0374,-1.0414,-1.0414,-1.0414,-1.0414,0,-1.0155,-1.0157,-1.0196,-1.0199,-1.0203,-1.0232,-1.0235,-1.0251,-1.0271,-1.0279,-1.0305,-1.0312,-1.0344,-1.0355,-1.0375,-1.0383,-1.0387,-1.0397,-1.0402,-1.0395,-1.0393,-1.04,-1.0402,-1.0413,-1.0414,-1.0414,-1.0414,0,-1.0114,-1.014,-1.0149,-1.018,-1.0188,-1.0189,-1.0216,-1.0222,-1.0241,-1.0251,-1.0255,-1.0285,-1.0299,-1.0326,-1.0347,-1.036,-1.0364,-1.0373,-1.0357,-1.036,-1.0352,-1.0352,-1.032,-1.0318,-1.0359,-1.0358,-1.0358,0,-1.0095,-1.0098,-1.013,-1.0137,-1.015,-1.0162,-1.0172,-1.02,-1.021,-1.0235,-1.0237,-1.0254,-1.0269,-1.0291,-1.0315,-1.0332,-1.0341,-1.0329,-1.0344,-1.0337,-1.0341,-1.0341,-1.0342,-1.0325,-1.0325,-1.0324,-1.0324,0,-1.0059,-1.0072,-1.0085,-1.0103,-1.0115,-1.013,-1.0148,-1.0152,-1.0185,-1.0194,-1.021,-1.0221,-1.0244,-1.026,-1.0281,-1.0296,-1.0316,-1.0319,-1.0319,-1.0311,-1.0301,-1.0307,-1.0347,-1.032,-1.032,-1.032,-1.0321,-1.0321,-1.0028,-1.0032,-1.0055,-1.007,-1.0086,-1.0102,-1.0108,-1.0129,-1.0142,-1.0163,-1.0179,-1.0194,-1.0216,-1.0246,-1.026,-1.0272,-1.0281,-1.028,-1.028,-1.0279,-1.0276,-1.03,-1.0276,-1.0276,-1.0277,-1.0277,-1.0277,0,-0.9993,-1.001,-1.0023,-1.0047,-1.0058,-1.0076,-1.0096,-1.0105,-1.0117,-1.0137,-1.0151,-1.0169,-1.0186,-1.0211,-1.023,-1.0235,-1.0244,-1.0239,-1.0238,-1.0242,-1.0267,-1.0266,-1.0231,-1.0231,-1.0231,-1.0231,-1.0231,-1.0231,-0.9976,-0.9984,-1.0,-1.0016,-1.0034,-1.0048,-1.0058,-1.0073,-1.0089,-1.0108,-1.0122,-1.0138,-1.0161,-1.0182,-1.0198,-1.0205,-1.0211,-1.0202,-1.0212,-1.0235,-1.024,-1.0244,-1.0243,-1.0203,-1.0203,-1.0186,-1.0186,-1.0186]}]]